Location: *
(50.3194°N, 7.1067°E)
Time: 03:47:05
(UTC+00:00)

CZ-2C R/B - Pass Details

Date: 22 September 2019
Orbit: 639 x 705 km, 98.4° (Epoch: 15 October)

Event Time Altitude Azimuth Distance (km) Brightness Sun altitude
Rises 18:57:31 0° 16° (NNE) 2,976 7.1 -14.5°
Reaches altitude 10° 18:59:46 10° 19° (NNE) 2,055 6.2 -14.8°
Maximum altitude 19:04:12 67° 103° (ESE) 699 3.5 -15.5°
Drops below altitude 10° 19:08:36 10° 186° (S) 2,027 6.0 -16.1°
Sets 19:10:48 0° 189° (S) 2,933 6.9 -16.5°
